Hourly Weather Roundup
Issued by NWS Central Illinois

Home | Current Version | Previous Version | Text Only | Print | Product List | Glossary On
Versions: 1 2 3 4 5 6 7 8 9 10 11 12 13 14 15 16 17 18 19 20 21 22 23 24 25 26 27 28 29 30 31 32 33 34 35 36 37 38 39 40 41 42 43 44 45 46 47 48 49 50
000
NZUS43 KILX 171210
HWRILX

AREA WEATHER ROUNDUP
NATIONAL WEATHER SERVICE, LINCOLN IL
700 AM CDT WED SEP 17 2014


CITY           SKY/WX    TMP DP  RH WIND       PRES   REMARKS
BLOOMINGTON    MOCLDY    46  42  86 SW3       30.07R
CHAMPAIGN      PTCLDY    45  43  93 CALM      30.06F FOG
6HR MIN TEMP:  44; 6HR MAX TEMP:  48;

DECATUR        PTCLDY    46  44  93 CALM      30.07S
6HR MIN TEMP:  45; 6HR MAX TEMP:  49;

FLORA          FOG       43  43 100 CALM      30.08S VSB<1/4
6HR MIN TEMP:  41; 6HR MAX TEMP:  46;

GALESBURG      MOCLDY    48  46  95 CALM      30.03F FOG
JACKSONVILLE   PTCLDY    49  47  96 CALM      30.04R FOG
6HR MIN TEMP:  48; 6HR MAX TEMP:  53; 6HR PCP:  0.01;

LACON          MOCLDY    47  46  96 CALM      30.03F
6HR MIN TEMP:  43; 6HR MAX TEMP:  47;

LAWRENCEVILLE  FOG       45  44  97 N3        30.08S VSB<1/4
6HR MIN TEMP:  44; 6HR MAX TEMP:  47;

LITCHFIELD       N/A     45  45 100 E6        30.02F FOG
$$


CITY           SKY/WX    TMP DP  RH WIND       PRES   REMARKS
LINCOLN        CLEAR     46  44  95 CALM      30.05S FOG
6HR MIN TEMP:  46; 6HR MAX TEMP:  49;

MACOMB         CLOUDY    46  46 100 NE3       30.05S FOG
MATTOON        CLEAR     47  46  97 CALM      30.07S FOG
6HR MIN TEMP:  44; 6HR MAX TEMP:  53;

MT CARMEL AP   FOG       45  43  93 CALM      30.08R VSB<1/4
OLNEY-NOBLE AP CLEAR     41  41 100 CALM      30.08S FOG
PARIS          FOG       43  43 100 CALM      30.08S VSB 1/4
6HR MIN TEMP:  42; 6HR MAX TEMP:  46;

PEORIA         PTCLDY    51  47  86 CALM      30.04F
6HR MIN TEMP:  49; 6HR MAX TEMP:  52;

PONTIAC        MOCLDY    46  46 100 CALM      30.06S FOG
RANTOUL        PTCLDY    46  43  90 CALM      30.08R
6HR MIN TEMP:  45; 6HR MAX TEMP:  51;

ROBINSON       FOG       45  45 100 CALM      30.09S VSB 1/4
6HR MIN TEMP:  44; 6HR MAX TEMP:  47;

SPRINGFIELD    PTCLDY    47  44  90 E6        30.03F
6HR MIN TEMP:  46; 6HR MAX TEMP:  48;

TAYLORVILLE      N/A     45  45 100 E3        30.05F FOG
$$

...REGIONAL REPORTS...


CITY           SKY/WX    TMP DP  RH WIND       PRES   REMARKS
CHICAGO O`HARE MOCLDY    48  44  86 S3        30.05R
KANKAKEE       FOG       43  43 100 CALM      30.07S VSB 3/4
MOLINE         PTCLDY    46  43  89 CALM      30.03S
MOUNT VERNON   CLEAR     45  39  81 NE3       30.06F
PITTSFIELD     PTCLDY    50  48  93 CALM      30.04R FOG
QUINCY         CLOUDY    53  50  89 SE6       30.00F
ROCKFORD       MOCLDY    42  39  89 CALM      30.07S
$$


CITY           SKY/WX    TMP DP  RH WIND       PRES   REMARKS
BURLINGTON     CLOUDY    53  52  96 SE3       30.01F
CEDAR RAPIDS   PTCLDY    44  44 100 E5        30.00F
DES MOINES     CLOUDY    58  50  75 SE5       29.96F
KIRKSVILLE     CLOUDY    56  53  90 E3        29.99S
OTTUMWA        CLOUDY    54  51  90 E5        29.98F
ST LOUIS       PTCLDY    55  50  83 SE5       30.02F
$$


CITY           SKY/WX    TMP DP  RH WIND       PRES   REMARKS
TERRE HAUTE    FOG       44  43  96 CALM      30.08S VSB 1/4
EVANSVILLE     CLEAR     46  44  93 CALM      30.07S FOG
INDIANAPOLIS   PTCLDY    48  46  93 CALM      30.07S FOG
LAFAYETTE      FOG       43  43 100 CALM      30.08R VSB<1/4
MADISON        PTCLDY    41  39  93 CALM      30.03S
MILWAUKEE      PTCLDY    48  41  76 CALM      30.04S
$$





USA.gov is the U.S. government's official web portal to all federal, state and local government web resources and services.